Lid_Strength_Index
2 2 1 1 1 2 2 3 4 4 4 4 4 4 4 5 5 5 7 6 7 11 11 9 10 11 10 10 13 11 12 12 12 14 14 14 14 13 13 12 13 14 14 14 12 14 15 8 9 11 8 7 7 8
3 2 1 1 1 2 2 3 4 4 4 4 4 4 4 4 5 5 9 6 5 9 11 8 8 8 7 6 9 10 9 10 10 12 11 12 13 12 13 15 11 14 11 11 10 10 7 7 7 6 7 8 7 7
3 2 1 0 1 2 2 3 3 4 4 4 4 4 4 5 4 5 6 6 7 9 10 9 10 7 6 6 5 9 9 9 9 8 9 10 13 10 14 13 11 10 8 9 10 9 8 7 6 6 6 7 6 6
3 2 1 1 1 2 2 2 2 3 3 3 3 4 4 4 5 5 7 6 6 8 12 12 7 9 6 5 5 5 7 7 7 7 9 10 12 10 11 11 10 8 8 9 10 8 7 7 6 6 6 6 6 6
3 2 2 1 1 2 2 2 2 2 3 3 3 4 5 5 5 5 5 5 5 7 12 12 9 7 6 6 6 6 6 7 8 9 10 11 10 10 10 9 10 8 9 9 9 8 8 7 6 6 6 7 7 7
4 2 2 1 1 1 2 2 2 2 2 3 3 3 4 5 5 5 7 6 5 5 8 13 9 9 7 6 7 7 7 7 7 8 9 9 9 9 11 12 9 8 8 7 7 6 6 5 5 6 7 8 7 8
4 2 2 1 1 1 2 2 2 2 3 3 3 3 4 4 5 7 8 7 6 4 8 12 12 9 7 7 7 7 6 7 7 8 9 9 9 7 9 12 9 7 6 7 6 6 8 7 8 6 7 7 7 8
3 2 2 1 1 1 1 2 2 2 2 2 3 3 3 3 4 7 5 5 5 6 7 11 13 10 7 9 10 7 9 8 8 8 8 9 8 8 11 9 8 7 6 6 6 6 7 7 7 7 7 7 8 9
3 2 2 1 1 1 1 1 1 2 2 3 4 3 3 5 6 5 5 4 3 6 10 10 12 14 7 8 8 8 7 11 7 9 9 8 10 11 10 8 8 7 7 7 7 7 7 7 8 8 9 9 10 11
3 2 2 2 1 1 1 1 1 2 3 4 4 5 9 5 4 5 5 7 7 7 7 10 8 11 8 9 10 9 8 10 11 9 7 9 9 9 8 7 6 6 6 6 8 9 8 9 9 10 10 10 11 12
2 2 2 2 1 1 1 1 1 2 2 4 6 8 4 4 5 7 10 10 10 11 9 9 9 10 6 10 10 8 10 9 12 11 11 11 10 10 8 8 8 7 7 7 7 8 8 8 9 10 11 12 12 12
2 2 2 2 1 1 0 1 1 2 3 3 4 4 5 7 9 11 13 11 11 13 10 10 9 8 8 5 9 9 12 10 14 8 11 12 9 9 9 9 9 8 9 9 9 10 10 11 11 11 12 13 14 14
2 2 2 2 1 1 1 1 2 1 2 2 5 8 8 10 12 13 15 13 13 10 9 8 10 8 7 7 10 10 12 12 8 11 11 9 10 9 9 9 10 9 10 11 11 11 12 13 13 13 15 14 14 15
2 2 2 1 1 1 1 1 2 2 2 6 8 12 11 12 11 11 10 10 9 8 7 7 8 8 8 9 10 12 11 10 12 13 12 8 9 10 9 10 10 11 12 12 13 13 14 15 16 15 15 14 14 15
2 2 2 2 2 1 2 2 3 2 4 8 8 12 12 10 10 9 8 8 7 6 6 7 7 7 9 10 9 10 12 13 11 11 8 8 9 10 11 11 12 13 14 15 15 16 16 15 15 15 15 14 14 15
1 1 2 2 1 2 2 2 3 3 6 8 9 11 10 9 10 9 8 8 6 5 4 5 8 9 10 9 11 12 12 12 10 7 7 8 10 10 11 12 13 14 14 14 15 15 15 15 15 15 15 15 15 15
1 3 1 2 2 3 3 4 4 7 8 10 10 8 8 7 8 8 6 6 4 5 8 7 10 12 8 10 11 8 10 8 7 8 8 8 10 11 12 14 15 15 14 14 14 14 14 14 15 14 14 14 13 14
3 1 1 1 2 3 3 3 6 8 11 9 10 9 8 8 8 7 5 5 5 5 6 8 6 10 10 12 10 8 8 9 8 9 9 9 10 11 12 13 14 14 14 14 14 14 14 14 13 12 13 13 14 14
1 1 1 1 1 3 5 5 5 10 10 9 9 8 7 8 8 6 5 5 4 3 5 6 9 9 9 6 7 7 8 9 11 11 11 10 11 12 13 13 14 13 14 13 13 12 12 12 12 12 12 12 12 12
1 0 1 1 1 4 6 7 4 8 9 8 8 9 8 8 7 7 6 5 4 5 7 8 8 7 6 6 7 7 8 8 11 12 12 11 11 13 13 13 12 12 12 13 13 13 13 13 12 12 12 12 12 13
1 1 0 1 4 3 5 7 8 7 8 9 9 8 9 8 8 7 7 6 6 7 7 6 6 8 9 9 9 8 9 8 9 9 10 12 11 11 12 12 12 12 12 13 13 13 13 13 13 13 13 12 12 12
2 1 2 2 4 5 6 5 7 7 8 8 8 8 9 9 8 8 7 7 7 5 5 6 7 9 9 10 11 8 8 8 9 9 10 12 12 12 12 12 12 12 12 12 12 12 12 12 12 13 12 13 14 12
1 2 4 5 7 7 9 5 8 8 10 10 8 10 10 9 8 7 8 7 6 9 9 9 10 9 9 13 12 11 11 10 10 10 12 11 11 11 11 11 11 12 12 12 11 12 12 13 14 13 13 13 13 13
3 5 7 8 7 10 7 8 7 8 9 9 10 12 11 9 8 9 10 8 8 10 11 12 10 11 12 12 11 11 11 9 10 10 10 11 12 12 11 11 11 11 11 12 12 12 13 13 14 13 13 14 13 13
7 9 8 10 7 9 10 10 10 10 11 10 11 11 11 9 11 12 12 9 10 10 10 11 11 10 10 10 10 10 14 10 11 11 11 10 11 12 12 12 12 11 11 12 13 13 13 14 13 13 14 13 14 14
11 10 9 9 9 9 9 11 11 11 10 11 12 11 10 11 14 13 11 10 10 10 11 12 11 12 12 10 11 11 12 10 10 11 12 11 12 12 13 14 14 14 12 11 12 13 14 14 14 14 14 15 17 14
10 11 9 8 9 9 10 9 9 10 12 12 12 13 12 14 13 12 10 10 10 10 11 11 10 11 10 11 11 11 11 11 11 11 11 11 11 10 11 12 13 11 12 12 12 12 13 14 14 14 14 14 14 14
10 10 11 11 11 11 11 11 11 11 11 11 11 13 14 13 12 11 11 11 12 12 12 11 11 10 11 12 12 13 14 15 15 14 14 14 14 13 13 12 12 14 12 13 12 13 13 14 14 14 14 15 16 15
11 11 11 12 12 12 13 12 12 13 13 11 11 12 12 13 13 13 13 13 12 11 12 13 14 13 14 14 14 14 14 14 14 16 16 15 15 15 14 14 15 14 15 15 16 15 15 15 15 15 15 15 16 17
13 11 12 14 13 13 15 15 14 15 15 14 14 13 13 14 16 15 14 14 13 13 13 13 14 13 15 15 16 16 15 13 12 13 14 14 14 13 16 15 15 15 15 15 15 16 17 17 18 18 18 18 17 17
12 11 13 14 15 15 16 17 17 17 16 15 16 13 14 16 16 16 17 17 15 14 14 14 15 14 15 15 15 16 16 16 17 15 13 13 14 15 15 15 15 15 15 15 16 16 17 17 16 17 17 17 18 17
13 15 14 15 15 16 16 15 16 15 15 14 15 15 15 15 18 18 18 18 17 17 17 16 16 15 15 13 13 12 15 14 16 16 16 15 15 15 16 16 16 15 15 16 16 16 17 17 17 16 17 17 18 18
15 15 16 16 15 16 17 17 17 17 16 16 18 18 18 18 21 19 18 18 19 20 20 18 16 15 15 15 14 14 15 14 15 16 17 16 17 16 16 16 16 16 17 17 17 17 17 17 17 17 17 18 19 20